#timestamp,LO_Frequency,Hit,StdDev 
1626969615.9,286047001.7,N
1626969635.7,286047003.9,N
1626969655.5,286047003.4,N
1626969675.4,286047005.4,N
1626969695.2,286047007.3,Y
1626969715.0,286047006.0,P
1626969715.9,286047006.0,P
1626969735.8,286047005.8,P
1626969755.6,286047003.5,N
1626969775.5,286047004.1,N
1626969795.3,286047003.3,N
1626969815.1,286047003.7,N
1626969835.9,286047004.6,Y
1626969855.7,286047002.0,P
1626969875.5,286047002.7,N
1626969895.4,286047002.4,N
1626969915.2,286047000.9,N
1626969935.1,286047000.9,N
1626969936.0,286047000.9,N
1626969955.8,286047000.7,N
1626969975.6,286046998.6,N
1626969995.5,286046998.6,N
1626970015.3,286046998.7,N
1626970035.1,286046999.1,N
1626970055.9,286046998.8,N
1626970075.7,286046996.7,N
1626970095.6,286046997.1,N
1626970115.4,286046999.1,N
1626970135.2,286046999.3,N
1626970155.1,286046998.9,N
1626970156.0,286046998.9,N
1626970175.8,286046998.8,N
1626970195.6,286046998.8,N
1626970215.5,286046999.0,N
1626970235.3,286046999.5,N
1626970255.2,286046995.0,N
1626970275.9,286046996.0,N
1626970295.7,286046994.0,N
1626970315.6,286046993.8,N
1626970335.4,286046993.6,N
1626970355.2,286046993.6,N
1626970375.1,286046993.7,N
1626970376.0,286046993.7,N
1626970395.8,286046993.5,N
1626970415.7,286046993.4,N
1626970435.5,286046995.7,N
1626970455.3,286046997.4,N
1626970475.2,286046999.5,N
1626970495.0,286046999.1,N
1626970495.9,286046999.1,N
1626970515.8,286046996.9,N
1626970535.6,286046997.6,N
1626970555.4,286046995.5,N
1626970575.3,286046995.9,N
1626970595.1,286046996.0,N
1626970615.9,286046995.2,N
1626970635.7,286046993.3,Y
1626970655.5,286046999.0,P
1626970675.4,286046996.5,N
1626970695.2,286046997.2,N
1626970715.0,286046999.4,N
1626970716.0,286046999.4,N
1626970735.8,286046998.3,N
1626970755.6,286046998.2,N
1626970775.5,286047001.0,N
1626970795.3,286047000.7,N
1626970815.1,286047000.9,N
1626970835.9,286047000.4,N
1626970855.7,286046999.8,N
1626970875.6,286047001.0,N
1626970895.4,286047002.1,N
1626970915.2,286047002.4,N
1626970935.1,286047002.4,N
1626970936.0,286047002.4,N
1626970955.8,286046999.7,N
1626970975.6,286046999.9,N
1626970995.5,286047002.1,N
1626971015.3,286047002.3,N
1626971035.2,286047002.8,N
1626971055.9,286047002.4,N
1626971075.7,286047002.2,N
1626971095.6,286047002.5,N
1626971115.4,286047002.1,N
1626971135.2,286047002.7,N
1626971155.1,286047002.5,N
1626971156.0,286047002.5,N
1626971175.8,286047001.0,N
1626971195.7,286047000.0,N
1626971215.5,286047000.4,N
1626971235.3,286047000.0,N
1626971255.2,286047000.8,N
1626971275.0,286047000.6,N
1626971275.9,286047000.6,N
1626971295.8,286047000.6,N
1626971315.6,286047001.0,N
1626971335.4,286047000.7,N
1626971355.3,286046999.9,N
1626971375.1,286047000.1,N
1626971395.9,286047000.1,N
1626971415.7,286046999.7,N
1626971435.5,286047000.1,N
1626971455.4,286047002.3,N
1626971475.2,286047002.2,N
1626971495.0,286047004.0,Y
1626971496.0,286047004.0,P
1626971515.8,286047000.2,N
1626971535.6,286047000.3,N
1626971555.5,286047000.3,N
1626971575.3,286047000.0,N
1626971595.1,286047000.9,N
1626971615.9,286047001.2,N
1626971635.7,286047001.0,N
1626971655.5,286047000.4,N
1626971675.4,286047000.9,N
1626971695.2,286047000.6,N
1626971715.1,286046998.1,N
1626971716.0,286046998.1,N
1626971735.8,286047001.2,N
1626971755.6,286046998.2,N
1626971775.5,286046999.4,N
1626971795.3,286046999.3,N
1626971815.1,286046999.4,N
1626971835.9,286046999.2,N
1626971855.7,286046996.9,N
1626971875.6,286046999.4,N
1626971895.4,286046998.9,N
1626971915.2,286046999.6,N
1626971935.1,286046997.3,N
1626971936.0,286046997.3,N
1626971955.8,286046997.7,N
1626971975.6,286046998.0,N
1626971995.5,286046995.1,Y
1626972015.3,286046997.4,P
1626972035.2,286046997.5,N
1626972055.9,286046995.2,P
1626972075.7,286046995.2,Y
1626972095.6,286046999.5,P
1626972115.4,286046996.6,P
1626972135.3,286046999.5,N
1626972155.1,286046997.1,N
1626972156.0,286046997.1,N
1626972175.8,286046996.6,N
1626972195.7,286046996.9,N
1626972215.5,286046998.8,N
1626972235.4,286046999.6,N
1626972255.2,286046996.7,N
1626972275.0,286046996.9,N
1626972275.9,286046996.9,N
1626972295.8,286046997.1,N
1626972315.6,286046997.3,N
1626972335.4,286046996.9,N
1626972355.3,286046998.0,N
1626972375.1,286046997.5,N
1626972395.9,286046996.7,Y
1626972415.7,286047000.3,P
1626972435.5,286046998.1,N
1626972455.4,286047000.5,N
1626972475.2,286047000.3,N
1626972495.0,286047000.3,N
1626972496.0,286047000.3,N
1626972515.8,286046999.8,N
1626972535.6,286047002.7,N
1626972555.5,286047002.3,N
1626972575.3,286047004.2,N
1626972595.1,286047003.7,N
1626972615.9,286047004.1,N
1626972635.7,286047004.0,N
1626972655.5,286047003.7,N
1626972675.4,286047001.9,N
1626972695.2,286047002.0,N
1626972715.1,286047001.9,N
1626972716.0,286047001.9,N
1626972735.8,286047001.6,N
1626972755.6,286047002.5,N
1626972775.5,286047002.5,N
1626972795.3,286046999.7,N
1626972815.1,286046999.9,N
1626972835.9,286047002.0,N
1626972855.7,286047002.3,N
1626972875.6,286047002.7,N
1626972895.4,286047001.6,N
1626972915.2,286047001.3,N
1626972935.1,286047001.7,N
1626972936.0,286047001.7,N
1626972955.8,286047004.3,N
1626972975.6,286047003.8,N
1626972995.5,286047001.3,N
1626973015.3,286047002.7,N
1626973035.2,286047002.6,N
1626973055.9,286047002.4,N
1626973075.7,286046999.7,N
1626973095.6,286047002.7,N
1626973115.4,286047001.0,N
1626973135.2,286047000.5,N
1626973155.1,286046999.7,N
1626973156.0,286046999.7,N
1626973175.8,286046999.7,N
1626973195.7,286047002.3,N
